Regional Weather Roundup
Issued by NWS Wakefield, VA

Home | Current Version | Previous Version | Graphics & Text | Print | Product List | Glossary On
Versions: 1 2 3 4 5 6 7 8 9 10 11 12 13 14 15 16 17 18 19 20 21 22 23 24 25 26 27 28 29 30 31 32 33 34 35 36 37 38 39 40 41 42 43 44 45 46 47 48 49 50
000
ASUS41 KAKQ 022014
RWRAKQ

REGIONAL WEATHER ROUNDUP
NATIONAL WEATHER SERVICE WAKEFIELD VA
400 PM EDT SAT MAY 02 2015

Note: "fair" indicates few or no clouds below 12,000 feet with no
significant weather and/or obstructions to visibility. * = Denotes
station may not report precipitation (e.g., rain,snow,etc.),
thunder or fog.

VAZ042-051-052>054-056-022100-
NORTHERN VIRGINIA

CITY           SKY/WX    TMP DP  RH WIND       PRES   REMARKS
WASH NATIONAL  PTSUNNY   76  44  32 N8        29.98F
DULLES         PTSUNNY   73  39  29 VRB5      29.99F
FORT BELVOIR   MOSUNNY   74  40  29 VRB3      29.98F
QUANTICO       PTSUNNY   70  48  45 SE3       30.00F
FREDERICKSBRG* PTSUNNY   74  44  34 N3        29.99F
STAFFORD*      PTSUNNY   70  36  28 CALM      30.03F
WARRENTON      PTSUNNY   73  45  36 NE3       30.00F
CULPEPER*      NOT AVBL
MANASSAS*      MOSUNNY   73  39  29 N14       30.00F
LEESBURG*      MOSUNNY   70  45  40 NW10      30.00F
WINCHESTER     PTSUNNY   73  32  21 CALM      30.00F
FRONT ROYAL*   CLOUDY    70  41  35 NW7       30.00F
LURAY*         CLOUDY    72  41  33 CALM      30.02F
$$

VAZ048-049-060>072-079>083-022100-
CENTRAL AND SOUTH CENTRAL VIRGINIA

CITY           SKY/WX    TMP DP  RH WIND       PRES   REMARKS
RICHMOND       MOSUNNY   72  44  36 NE10G17   30.00F
CHESTERFIELD*  MOCLDY    70  43  37 NW7       30.02F
PETERSBURG*    PTSUNNY   72  42  33 NW6       30.01F
HANOVER        PTSUNNY   71  42  35 VRB7      30.01F
TAPPAHANNOCK*  MOSUNNY   72  39  30 N9        30.01F
QUINTON*       FAIR      70  46  41 NE10G17   30.00F
CHARLOTTSVILLE PTSUNNY   71  41  33 NE6       30.02F
GORDONSVILLE*  MOCLDY    69  42  36 N3        30.01S
ORANGE*        MOSUNNY   72  43  35 CALM      30.02F
LOUISA*        CLOUDY    72  41  33 NW5       30.00S
BUMPASS*       MOCLDY    70  43  37 NW5       30.00F
FARMVILLE*     PTSUNNY   73  40  31 CALM      30.01S
CREWE*         CLOUDY    70  43  37 NW7       30.01F
FORT PICKETT*  CLOUDY    69  45  42 NW8       30.02S
CHASE CITY*    CLOUDY    70  50  48 N3        30.03S
CLARKSVILLE*   MOCLDY    70  48  46 NW3       30.02F
SOUTH HILL*    CLOUDY    68  48  50 CALM      30.07F
LAWRENCEVILLE* MOCLDY    68  48  49 NW3       30.01F
EMPORIA*       CLOUDY    68  46  45 NW7       30.03F
$$

VAZ088>098-022100-
SOUTHEAST VIRGINIA

CITY           SKY/WX    TMP DP  RH WIND       PRES   REMARKS
NORFOLK        SUNNY     63  46  54 NE8       30.01F
VIRGINIA BEACH MOSUNNY   66  46  48 N10       30.01F
NORFOLK NAVAL  MOSUNNY   69  48  47 NE8       30.03F
WEST POINT*    MOSUNNY   74  36  25 N9        30.02F
SALUDA*        FAIR      64  50  60 E8        30.00F
NEWPORT NEWS   LGT RAIN  71  50  47 E10       30.01S
LANGLEY AFB    SUNNY     65  51  60 E7        30.00F
FORT EUSTIS    MOSUNNY   71  46  41 NE6       29.98F
WILLIAMSBURG*  MOSUNNY   75  50  41 CALM      30.01S
HR EXEC AP*    FAIR      70  50  49 NE8       30.02S
FRANKLIN*      MOSUNNY   70  46  42 N10       30.00F
WAKEFIELD      MOSUNNY   73  47  39 VRB6      30.00F
$$

VAZ020-022-025-037-045-022100-
WEST CENTRAL AND SOUTHWEST VIRGINIA

CITY           SKY/WX    TMP DP  RH WIND       PRES   REMARKS
STAUNTON*      CLOUDY    69  38  32 E5        30.05F
WAYNESBORO*    CLOUDY    66  39  36 N6        30.05S
HOT SPRINGS VA CLOUDY    59  31  35 N9        30.09F
LYNCHBURG      CLOUDY    68  40  35 CALM      30.05F
DANVILLE       PTSUNNY   71  47  42 NW5       30.04F
SOUTH BOSTON*  CLOUDY    70  44  38 N6        30.03S
MARTINSVILLE   PTSUNNY   70  39  32 NE5       30.07F
ROANOKE        CLOUDY    68  41  37 NW6       30.07F
BLACKSBURG     CLOUDY    64  37  38 N7        30.10F
DUBLIN*        MOSUNNY   67  36  31 NW5       30.09F
MARION*        PTSUNNY   66  37  34 W9        30.12S
HILLSVILLE*    MOSUNNY   62  37  39 NW6       30.10F
RICHLANDS*     FAIR      64   2   8 NW9       30.11F
WISE*          SUNNY     66  27  22 N5        30.13F
ABINGDON*      SUNNY     69  34  27 N8G16     30.10F
$$

MDZ021>025-VAZ099-100-022100-
SOUTHERN MARYLAND AND THE DELMARVA PENINSULA

CITY           SKY/WX    TMP DP  RH WIND       PRES   REMARKS
PATUXENT RIVER MOSUNNY   68  44  42 N5        29.99F
BAY BRIDGE APT   N/A    N/A N/A N/A W3        29.98F
LEONARDTOWN    SUNNY     68  37  32 NE6       30.01F
DOVER          SUNNY     71  48  44 N3        29.93F
GEORGETOWN     MOSUNNY   70  44  39 NE12G28   29.98F
EASTON         MOSUNNY   73  48  40 CALM      30.01F
CAMBRIDGE      SUNNY     72  46  40 N5        29.98F
SALISBURY      PTSUNNY   70  42  36 NE6       29.97F
OCEAN CITY     SUNNY     54  45  71 SE9       30.01F
WALLOPS ISLAND SUNNY     60  50  69 SE9       30.01F
ACCOMACK*      SUNNY     63  45  51 N5        30.01F
$$

NCZ012>017-030>032-022100-
NORTH CENTRAL AND EASTERN NORTH CAROLINA

CITY           SKY/WX    TMP DP  RH WIND       PRES   REMARKS
ROANOKE RAPIDS CLOUDY    68  46  45 N9        30.02S
RALEIGH        PTSUNNY   71  49  45 N5        30.04F
ELIZABETH CITY MOSUNNY   68  48  48 N12       30.01F
AHOSKIE*       PTSUNNY   69  47  45 N6        30.01S
EDENTON*       PTSUNNY   69  49  49 N9        30.01S
CURRITUCK*     SUNNY     63  46  54 NE5       30.02F
KILL DEVIL HLS SUNNY     57  43  60 NE8       30.01F
MANTEO         SUNNY     59  44  58 NE10      30.03F
CAPE HATTERAS  SUNNY     56  43  61 NE14G24   30.02F
TARBORO*       MOCLDY    72  47  41 N9        30.02F
GOLDSBORO      MOSUNNY   71  53  53 NE6       30.00F
WASHINGTON     MOSUNNY   69  47  45 N7        30.01F
GREENVILLE     MOSUNNY   70  46  43 N8        30.03S
NEW BERN       PTSUNNY   72  48  42 NW8       30.01F
WILMINGTON     MOSUNNY   73  48  41 N8        30.01F
$$

VAZ048-022100-
ELSEWHERE

CITY           SKY/WX    TMP DP  RH WIND       PRES   REMARKS
HARRISBURG PA  PTSUNNY   76  39  26 NW8       29.94F
BALTIMORE      PTSUNNY   73  41  31 CALM      29.96F
ANNAPOLIS      SUNNY     67  47  48 SE9       29.97F
ANDREWS AFB    PTSUNNY   70  47  43 VRB3      29.97F
PHILADELPHIA   PTSUNNY   73  43  33 E6        29.94F
HENDERSON NC   CLOUDY    68  44  42 NW5       30.04S
GREENSBORO     PTSUNNY   71  38  29 N6        30.04F
ROCKY MOUNT    CLOUDY    68  49  50 CALM      30.03S
$$

VAZ100-022100-
MARINE

STATION/POSITION TIME  TEMP    WIND        PRES    WAVE   SWELL
                       AIR SEA DIR/SP/G            HT/PER HT/PER
                 (UTC) (F)     (DEG/KT/KT) (MB)    (FT/S) (FT/S)
BRANDYWINE LGT   1912   52 55  150/ 14/ 15 1015.6F
CAPE MAY NJ      1900   56 59  100/  7/  8 1015.6F
LEWES DE         1900   56 53   90/  7/  9 1015.7F
15NM E FENWICK I 1950   48 49              1015.9F   6/ 8
OCEAN-CITY-INLET 1900   53 55  110/  5/  8 1016.1S
WACHAPREAGUE VA  1900   55 60   70/  7/  8 1016.5F
THOMAS POINT MD  2000   62 56  190/ 10/ 11 1015.9F
GOOSES REEF MD   2000   61 61                N/A     0
COVE POINT MD    1900   59      60/  1/  2 1016.9F
SOLOMONS ISLAND  1900      61                N/A
BISHOPS HEAD MD  1900   59 60  250/  8/  8 1015.7F
PINEY POINT MD   1900          190/  7/  8   N/A
CAMBRIDGE MD     1900   64 60  320/  5/  6 1015.5F
LEWISETTA VA     1900   62 61              1015.9F
RAPPAHANNOCK LGT 1900          340/  5/  5 1017.0F
YORK RVR RNG VA  1900   57     130/  6/  7 1016.1F
YORKTOWN VA      1900   60 60   90/ 10/ 10 1016.2F
JAMESTOWN VA     2000   68 63   20/  6/ 12 1015.0F
DOMINION TERM VA 1900   61     330/  1/  4 1016.7F
KIPTOPEKE VA     1900      63  330/ 12/ 14   N/A
CHES BAY BRIDGE  1900   56 57  350/  6/  7 1016.5S
CAPE HENRY VA    1900   57     310/  8/ 10 1015.5S
CHESAPEAKE LGHT  1900   51      50/  3/  3 1017.5S
WILLOUBY STN VA  1900   57      70/ 10/ 10 1017.2F
S CRANEY ISL VA  1900           30/  3/  4 1016.7S
CAPE HENRY BUOY  1928      53                N/A     6/11   2/11
1ST LANDING BUOY 2000      59              1016.4F   3/ 5
CAPE CHARLES BUO 1926      56                N/A     6/10   7/10
OFFSHORE WE BUOY 1911      51                N/A     7/10   7/10
64NM E OF VA BCH 1950   54 62  360/ 16/ 21 1015.6R   9/10   7/10
DUCK PIER NC     1900   52 56   20/ 11/ 13 1016.1R
44056 DUCK FRF   1911      54                N/A     7/10   3/11
OREGON INLET NC  1900   55 56  360/ 12/ 16 1016.9R
HATTERAS NC      1900   58 59   20/ 15/ 20 1015.9F
DIAMOND SHLS NC  1950   54 60  360/ 19/ 21 1016.2F   7/11   5/11
CAPE LOOKOUT NC  2000   67      10/ 10/ 11 1015.7F
$$


USA.gov is the U.S. government's official web portal to all federal, state and local government web resources and services.